Location: Newark
(47.5000°N, 4.6167°E)
Time: 01:58:21
(UTC+00:00)

ISS - Pass Details

Date: 19 May 2021
Orbit: 417 x 422 km, 51.6° (Epoch: 14 June)

Event Time Altitude Azimuth Distance (km) Brightness Sun altitude
Rises 23:18:10 0° 292° (WNW) 2,370 0.4 -22.4°
Reaches altitude 10° 23:20:18 10° 297° (WNW) 1,505 -0.6 -22.4°
Enters shadow 23:23:20 54° 351° (N) 516 -3.1 -22.4°
